Regional Weather Roundup
Issued by NWS

Home | Current Version | Previous Version | Graphics & Text | Print | Product List | Glossary On
Versions: 1 2 3 4 5 6 7 8 9 10 11 12 13 14 15 16 17 18 19 20 21 22 23 24 25 26 27 28 29 30 31 32 33 34 35 36 37 38 39 40 41 42 43 44 45 46 47 48 49 50
542
ASUS45 KBOI 240810
RWRID

IDAHO REGIONAL WEATHER ROUNDUP
NATIONAL WEATHER SERVICE BOISE ID
200 AM MDT FRI MAR 24 2017

NOTE: "FAIR" INDICATES FEW OR NO CLOUDS BELOW 12000 FEET
WITH NO SIGNIFICANT WEATHER AND/OR OBSTRUCTIONS TO VISIBILITY

IDZ012-014-240900-
SOUTHWEST IDAHO


CITY           SKY/WX    TMP DP  RH WIND       PRES   REMARKS
BOISE          MOCLDY    45  25  45 SE15      30.04F
CALDWELL       MOCLDY    43  30  60 E10       30.04F
MOUNTAIN HOME  MOCLDY    39  34  81 E8        30.07F WCI  34
$$

IDZ016-017-240900-
SOUTHCENTRAL IDAHO


CITY           SKY/WX    TMP DP  RH WIND       PRES   REMARKS
BURLEY         CLEAR     36  24  62 SW10      30.10R WCI  28
JEROME         CLEAR     38  27  64 SE7       30.11R WCI  33
TWIN FALLS     CLEAR     37  26  64 S14       30.10R WCI  28
$$

IDZ019>023-240900-
SOUTHEAST IDAHO


CITY           SKY/WX    TMP DP  RH WIND       PRES   REMARKS
IDAHO FALLS    CLEAR     38  24  57 SW14      30.09R WCI  30
POCATELLO      CLEAR     41  24  51 SW14      30.12R
REXBURG        CLEAR     37  24  59 S12       30.09R WCI  29
$$

IDZ006-010-011-018-031-032-240900-
CENTRAL IDAHO MOUNTAINS


CITY           SKY/WX    TMP DP  RH WIND       PRES   REMARKS
MCCALL         PTCLDY    27  22  81 CALM      30.03S
HAILEY         CLEAR     32  23  69 N7        30.11R WCI  26
STANLEY          N/A     20  14  77 CALM      30.10R
SALMON         CLEAR     28  21  74 CALM      30.05R
CHALLIS        CLEAR     34  21  59 CALM      30.06R
$$

IDZ002-004-006-007-026-240900-
NORTHERN IDAHO


CITY           SKY/WX    TMP DP  RH WIND       PRES   REMARKS
LEWISTON       PTCLDY    40  32  73 SE7       29.98F
LOWELL           N/A     35  32  88 VRB5      30.10S WCI  31
COEUR D`ALENE  CLEAR     33  28  81 E6        30.01F WCI  28
MULLAN PASS    PTCLDY    23  21  92 S8        29.96F WCI  14
$$




USA.gov is the U.S. government's official web portal to all federal, state and local government web resources and services.